Content
SEND FEEDBACK

Daily
Averages
Monthly
Summary
United States of America

STILWELL, OKLAHOMA


Home > North America > United States > Oklahoma
Elevation: 1194 feet     Latitude: 35 50N     Longitude: 094 37W

WEATHER
 
SELECT A DAY
Number of Records: 325,129;   Date Range: 3/30/01 - 7/7/14
 
SHARE

PRINT THIS DATA

[ ← Previous Day ]
WEATHER ALMANAC - JANUARY 31, 2013
[ Next Day → ]
[ °C ]   °F
Weather ElementAverageHighLow
Temperature31.2 °F51.8 °F (1:15 pm)21.2 °F (12:35 am)
Dewpoint22.2 °F30.2 °F (2:15 pm)8.6 °F (10:35 pm)
Humidity73.1 %100 % (12:35 am)35 % (12:35 pm)
Barometer30.19 in30.45 in (10:15 pm)30.04 in (4:15 am)
Wind Speed6.4 mph19.6 mph (3:15 pm)
Wind Gust28.8 mph (5:35 pm)
Weather ElementAverage
Visibility9.5 mi
Wind DirectionSSE (159.2 °)

Weather ElementTotal
Precipitation---
Heating Degree Days28.5 (Base 65)
Averaged from 71 records on January 31, 2013
WEATHER CONDITIONS BREAKOUT
WIND DIRECTION BREAKOUT
WEATHER BY HOUR - JANUARY 31, 2013
[ °C ]   °F
Local TimeTemperatureDewpointHumidityBarometerVisibilityWind DirectionWind SpeedGust SpeedPrecipitationEventsConditions
12:35 AM21.2 °F21.2 °F100 %30.08 in10.0 miCalmClear
12:55 AM21.2 °F21.2 °F100 %30.07 in10.0 miCalmClear
1:15 AM23.0 °F21.2 °F93 %30.06 in7.0 miCalmClear
1:35 AM21.2 °F21.2 °F100 %30.06 in7.0 miCalmClear
1:55 AM23.0 °F23.0 °F100 %30.06 in10.0 miCalmClear
2:15 AM23.0 °F23.0 °F100 %30.06 in10.0 miCalmClear
2:35 AM21.2 °F19.4 °F93 %30.06 in7.0 miCalmClear
2:55 AM21.2 °F21.2 °F100 %30.05 in7.0 miCalmClear
3:15 AM21.2 °F21.2 °F100 %30.06 in7.0 miCalmClear
3:35 AM21.2 °F19.4 °F93 %30.05 in7.0 miCalmClear
3:55 AM23.0 °F23.0 °F100 %30.05 in10.0 miCalmClear
4:15 AM21.2 °F19.4 °F93 %30.04 in7.0 miCalmClear
4:35 AM21.2 °F21.2 °F100 %30.05 in7.0 miCalmClear
4:55 AM21.2 °F19.4 °F93 %30.05 in7.0 miCalmClear
5:15 AM23.0 °F21.2 °F93 %30.05 in7.0 miCalmClear
5:35 AM23.0 °F21.2 °F93 %30.05 in10.0 miCalmClear
5:55 AM21.2 °F21.2 °F100 %30.06 in10.0 miCalmClear
6:15 AM23.0 °F21.2 °F93 %30.06 in10.0 miCalmClear
6:35 AM23.0 °F21.2 °F93 %30.06 in10.0 miCalmClear
6:55 AM21.2 °F21.2 °F100 %30.07 in10.0 miCalmClear
7:15 AM21.2 °F21.2 °F100 %30.07 in10.0 miCalmClear
7:35 AM23.0 °F21.2 °F93 %30.07 in7.0 miCalmClear
7:55 AM24.8 °F23.0 °F93 %30.08 in7.0 miCalmClear
8:15 AM26.6 °F24.8 °F93 %30.08 in7.0 miCalmClear
8:35 AM28.4 °F26.6 °F93 %30.09 in10.0 miCalmClear
8:55 AM32.0 °F28.4 °F87 %30.10 in10.0 miSSW (200°)3.5 mphClear
9:15 AM33.8 °F28.4 °F81 %30.10 in10.0 miSouth (190°)4.6 mphClear
9:35 AM35.6 °F28.4 °F75 %30.10 in10.0 miSouth (180°)3.5 mphClear
9:55 AM37.4 °F26.6 °F65 %30.12 in10.0 miSW (230°)5.8 mphClear
10:15 AM41.0 °F28.4 °F61 %30.14 in10.0 miWest (280°)5.8 mphClear
10:35 AM41.0 °F26.6 °F57 %30.14 in10.0 miWNW (290°)3.5 mphClear
10:55 AM44.6 °F26.6 °F49 %30.14 in10.0 miWest (270°)3.5 mphClear
11:15 AM46.4 °F26.6 °F46 %30.15 in10.0 miWest (270°)5.8 mphClear
11:35 AM46.4 °F26.6 °F46 %30.15 in10.0 miWNW (300°)5.8 mphClear
11:55 AM46.4 °F26.6 °F46 %30.13 in10.0 miWest (270°)3.5 mphClear
12:15 PM50.0 °F26.6 °F40 %30.13 in10.0 miWNW (300°)8.1 mphClear
12:35 PM50.0 °F23.0 °F35 %30.13 in10.0 miWNW (290°)12.7 mph18.4 mphClear
12:55 PM50.0 °F26.6 °F40 %30.12 in10.0 miNW (320°)10.4 mphClear
1:15 PM51.8 °F26.6 °F38 %30.12 in10.0 miNorth (350°)10.4 mphClear
1:35 PM51.8 °F26.6 °F38 %30.13 in10.0 miNNW (330°)6.9 mph10.4 mphClear
1:55 PM51.8 °F28.4 °F41 %30.13 in10.0 miNorth (360°)13.8 mph17.3 mphClear
2:15 PM50.0 °F30.2 °F47 %30.13 in10.0 miNNW (340°)15.0 mph19.6 mphClear
2:35 PM50.0 °F30.2 °F47 %30.14 in10.0 miNNW (340°)12.7 mph19.6 mphClear
2:55 PM48.2 °F30.2 °F50 %30.15 in10.0 miNorth (360°)16.1 mph23.0 mphClear
3:15 PM46.4 °F30.2 °F53 %30.17 in10.0 miNNW (340°)19.6 mph24.2 mphClear
3:35 PM44.6 °F28.4 °F53 %30.19 in10.0 miNorth (360°)16.1 mph25.3 mphClear
3:55 PM41.0 °F28.4 °F61 %30.21 in10.0 miNorth (360°)19.6 mph25.3 mphClear
4:15 PM37.4 °F26.6 °F65 %30.22 in10.0 miNorth (10°)16.1 mph23.0 mphClear
4:35 PM35.6 °F26.6 °F70 %30.23 in10.0 miNorth (10°)11.5 mph24.2 mphClear
4:55 PM35.6 °F24.8 °F65 %30.23 in10.0 miNorth (360°)16.1 mph20.7 mphClear
5:15 PM33.8 °F26.6 °F75 %30.27 in10.0 miNorth (360°)12.7 mph21.9 mphClear
5:35 PM32.0 °F23.0 °F69 %30.27 in10.0 miNorth (360°)18.4 mph28.8 mphClear
5:55 PM32.0 °F23.0 °F69 %30.30 in10.0 miNNE (20°)15.0 mph21.9 mphClear
6:15 PM30.2 °F23.0 °F75 %30.32 in10.0 miNorth (360°)9.2 mph19.6 mphClear
6:35 PM30.2 °F23.0 °F75 %30.34 in10.0 miNorth (10°)10.4 mphClear
6:55 PM28.4 °F23.0 °F80 %30.35 in10.0 miNorth (10°)8.1 mphClear
7:15 PM28.4 °F21.2 °F74 %30.36 in10.0 miNorth (10°)8.1 mphClear
7:35 PM26.6 °F21.2 °F80 %30.38 in10.0 miNorth (360°)8.1 mphClear
7:55 PM26.6 °F21.2 °F80 %30.39 in10.0 miNorth (350°)10.4 mphClear
8:15 PM26.6 °F19.4 °F74 %30.40 in10.0 miNorth (360°)9.2 mphClear
8:35 PM26.6 °F17.6 °F69 %30.41 in10.0 miNorth (10°)10.4 mphClear
8:55 PM26.6 °F15.8 °F64 %30.42 in10.0 miNorth (350°)9.2 mph17.3 mphClear
9:15 PM24.8 °F15.8 °F69 %30.43 in10.0 miNorth (360°)8.1 mphClear
9:35 PM24.8 °F14.0 °F64 %30.44 in10.0 miNorth (360°)11.5 mphClear
9:55 PM23.0 °F12.2 °F63 %30.44 in10.0 miNorth (10°)10.4 mphClear
10:15 PM23.0 °F10.4 °F59 %30.45 in10.0 miNorth (360°)11.5 mphClear
10:35 PM23.0 °F8.6 °F54 %30.45 in10.0 miNorth (360°)8.1 mphClear
10:55 PM21.2 °F8.6 °F58 %30.45 in10.0 miNorth (360°)6.9 mphClear
11:15 PM21.2 °F8.6 °F58 %30.45 in10.0 miNorth (10°)8.1 mphClear
11:35 PM21.2 °F8.6 °F58 %30.45 in10.0 miCalmClear
11:55 PM21.2 °F8.6 °F58 %30.43 in10.0 miNorth (10°)10.4 mphClear
Hourly data recorded from KTQH, located miles away from Stilwell, Oklahoma







STORIES FROM OUR PARTNERS